Weather in Ust-Dzhilinda

Russia / Republic of Buryatia     53°39′48″N   111°56′37″E
temp.,
°C
wind,
m/s
gust,
m/s
humid.,
%
clouds,
%
prec.,
mm/h
press.,
hPa
HPBL,
m
17 april, sat
sat1723:00−4wsw2272100 0.0 101558
02:00−5w1172100 0.0 101420
05:00−6wsw1175100 0.0 101319
08:00−2sw2462100 0.0 1011232
11:00+7wsw693799 0.0 1005904
14:00+10wsw683382 0.0 10021412
17:00+8wsw5638100 0.0 10021155
20:00+3sw3664100 0.0 1005108
18 april, sun
sun1823:000sw3874100 0.0 1004138
02:00−1wsw2277100 0.0 100423
05:00−1n2277100 0.0 100630
08:00+1nnw4558100 0.0 1007472
11:00+3nw993231 0.0 10091667
14:00+1nw10102149 0.0 10131964
17:00−1nw992111 0.0 10172353
20:00−6n610330 0.0 1023605
19 april, mon
mon1923:00−8n37410 0.0 1025274
02:00−10nne11455 0.0 102610
05:00−11se004612 0.0 102710
08:00−7s242996 0.0 1026648
11:00−3s5616100 0.0 10221442
14:00+1ssw5718100 0.0 10161709
17:00+3s6923100 0.0 10111641
20:00−1ese2237100 0.0 101012
20 april, tue
tue2023:00−3ese114682 0.0 100912
02:00−5nnw114995 0.0 100810
05:00−6ne0159100 0.0 101010
08:00−1sw1248100 0.0 1010293
11:00+3ssw233394 0.0 10101448
14:00+6w66232 0.0 10091926
17:00+5w332598 0.0 10101587
20:000nnw1240100 0.0 101365
21 april, wed
wed2123:00−2nw1147100 0.0 101517
02:00−3n234799 0.1 101670
05:00−5n2351100 0.0 101849
08:00−2nne2332100 0.0 1017552
11:00+1ne2224100 0.0 10151481
14:00+4ene3422100 0.0 10111982
17:00+3nne8738100 0.0 1010683
20:00−3n81370100 0.0 1013738